Location: Dappach
(48.9767°N, 9.6998°E)
Time: 09:55:05
(UTC+00:00)

Cosmos 1953 - Pass Details

Date: 23 May 2024
Orbit: 510 x 531 km, 82.5° (Epoch: 15 June)

Event Time Altitude Azimuth Distance (km) Brightness Sun altitude
Rises 00:57:30 0° 347° (NNW) 2,687 6.7 -16.9°
Reaches altitude 10° 00:59:41 10° 343° (NNW) 1,789 5.6 -16.8°
Maximum altitude 01:03:32 58° 265° (W) 619 2.3 -16.5°
Enters shadow 01:04:56 35° 202° (SSW) 865 2.8 -16.4°
